• Em Portugal
  • Lista de países
  • Para 7 dias
  • Temperatura da água
  • Mapas de satélite
  • Mapa do tempo
  • Widgets de tempo
  • user-avatar
    Iniciar Sessão

    Previsão horária em Wagadugu

    Hoje, 20 Julho, Sexta-feira

    Tempo Temperatura Precipitação Vento Pressão Humidade
    00:00 +31°C° 0,1 mm 3 m/s 733 mmHg 58%
    01:00 +30°C° 0,9 mm 3 m/s 733 mmHg 62%
    02:00 +29°C° 0,9 mm 3 m/s 733 mmHg 65%
    03:00 +28°C° 0,9 mm 3 m/s 732 mmHg 69%
    04:00 +28°C° 0,3 mm 3 m/s 733 mmHg 70%
    05:00 +28°C° 0,3 mm 3 m/s 733 mmHg 71%
    06:00 +28°C° 0 mm 3 m/s 733 mmHg 70%
    07:00 +29°C° 0,1 mm 3 m/s 733 mmHg 65%
    08:00 +31°C° 0,1 mm 3 m/s 733 mmHg 60%
    09:00 +33°C° 0,1 mm 4 m/s 733 mmHg 55%
    10:00 +34°C° 0 mm 3 m/s 733 mmHg 51%
    11:00 +36°C° 0 mm 3 m/s 733 mmHg 46%
    12:00 +36°C° 0 mm 1 m/s 733 mmHg 42%
    13:00 +36°C° 0 mm 1 m/s 732 mmHg 40%
    14:00 +36°C° 0 mm 1 m/s 732 mmHg 38%
    15:00 +38°C° 0 mm 2 m/s 731 mmHg 37%
    16:00 +37°C° 0 mm 2 m/s 731 mmHg 37%
    17:00 +37°C° 0 mm 2 m/s 731 mmHg 38%
    18:00 +37°C° 0 mm 2 m/s 731 mmHg 39%
    19:00 +36°C° 0,1 mm 2 m/s 731 mmHg 42%
    20:00 +35°C° 0,1 mm 2 m/s 731 mmHg 45%
    21:00 +34°C° 0,1 mm 2 m/s 731 mmHg 48%
    22:00 +32°C° 0,1 mm 2 m/s 732 mmHg 52%
    23:00 +33°C° 0,1 mm 3 m/s 732 mmHg 57%

    Amanhã, 21 Julho, Sábado

    Tempo Temperatura Precipitação Vento Pressão Humidade
    00:00 +32°C° 0,1 mm 4 m/s 732 mmHg 61%
    01:00 +30°C° 0,2 mm 4 m/s 732 mmHg 64%
    02:00 +30°C° 0,2 mm 4 m/s 732 mmHg 67%
    03:00 +29°C° 0,2 mm 4 m/s 732 mmHg 71%
    04:00 +29°C° 0,1 mm 4 m/s 732 mmHg 72%
    05:00 +29°C° 0,1 mm 4 m/s 732 mmHg 73%
    06:00 +28°C° 0,1 mm 4 m/s 732 mmHg 74%
    07:00 +29°C° 0 mm 4 m/s 732 mmHg 70%
    08:00 +30°C° 0 mm 5 m/s 733 mmHg 66%
    09:00 +32°C° 0 mm 5 m/s 733 mmHg 62%
    10:00 +33°C° 0 mm 5 m/s 733 mmHg 57%
    11:00 +35°C° 0 mm 5 m/s 733 mmHg 52%
    12:00 +36°C° 0 mm 5 m/s 733 mmHg 47%
    13:00 +36°C° 0 mm 5 m/s 732 mmHg 46%
    14:00 +36°C° 0 mm 4 m/s 732 mmHg 45%
    15:00 +36°C° 0 mm 3 m/s 731 mmHg 44%
    16:00 +36°C° 0 mm 3 m/s 731 mmHg 45%
    17:00 +36°C° 0 mm 3 m/s 731 mmHg 47%
    18:00 +35°C° 0 mm 3 m/s 732 mmHg 48%
    19:00 +34°C° 0 mm 4 m/s 732 mmHg 51%
    20:00 +33°C° 0 mm 4 m/s 732 mmHg 55%
    21:00 +33°C° 0 mm 4 m/s 733 mmHg 58%
    22:00 +32°C° 0 mm 4 m/s 733 mmHg 60%
    23:00 +30°C° 0 mm 4 m/s 733 mmHg 62%

    Depois de amanhã, 22 Julho, Domingo

    Tempo Temperatura Precipitação Vento Pressão Humidade
    00:00 +30°C° 0 mm 5 m/s 733 mmHg 64%
    01:00 +30°C° 0 mm 4 m/s 733 mmHg 65%
    02:00 +29°C° 0 mm 4 m/s 733 mmHg 67%
    03:00 +29°C° 0 mm 3 m/s 732 mmHg 69%
    04:00 +28°C° 0,3 mm 4 m/s 733 mmHg 71%
    05:00 +28°C° 0,3 mm 4 m/s 733 mmHg 74%
    06:00 +27°C° 0,3 mm 4 m/s 733 mmHg 76%
    07:00 +28°C° 0,1 mm 4 m/s 733 mmHg 74%
    08:00 +28°C° 0,1 mm 4 m/s 734 mmHg 72%
    09:00 +29°C° 0,1 mm 4 m/s 734 mmHg 70%
    10:00 +30°C° 0 mm 4 m/s 734 mmHg 64%
    11:00 +32°C° 0 mm 4 m/s 734 mmHg 58%
    12:00 +34°C° 0 mm 4 m/s 734 mmHg 52%
    13:00 +34°C° 0,1 mm 3 m/s 733 mmHg 50%
    14:00 +35°C° 0,1 mm 3 m/s 733 mmHg 47%
    15:00 +36°C° 0,1 mm 2 m/s 732 mmHg 44%
    16:00 +35°C° 0,1 mm 2 m/s 732 mmHg 45%
    17:00 +35°C° 0,1 mm 2 m/s 732 mmHg 46%
    18:00 +35°C° 0,1 mm 2 m/s 732 mmHg 47%
    19:00 +34°C° 0 mm 2 m/s 732 mmHg 50%
    20:00 +33°C° 0 mm 3 m/s 733 mmHg 53%
    21:00 +31°C° 0 mm 3 m/s 734 mmHg 56%
    22:00 +31°C° 0 mm 3 m/s 734 mmHg 59%
    23:00 +30°C° 0 mm 3 m/s 734 mmHg 61%

    23 Julho, Segunda-feira

    Tempo Temperatura Precipitação Vento Pressão Humidade
    00:00 +30°C° 0 mm 4 m/s 734 mmHg 64%
    01:00 +29°C° 0 mm 4 m/s 733 mmHg 66%
    02:00 +29°C° 0 mm 4 m/s 733 mmHg 68%
    03:00 +28°C° 0 mm 4 m/s 733 mmHg 70%
    04:00 +28°C° 0,2 mm 4 m/s 733 mmHg 72%
    05:00 +28°C° 0,2 mm 3 m/s 734 mmHg 74%
    06:00 +27°C° 0,2 mm 3 m/s 734 mmHg 75%
    07:00 +29°C° 0 mm 4 m/s 735 mmHg 70%
    08:00 +30°C° 0 mm 4 m/s 735 mmHg 64%
    09:00 +32°C° 0 mm 5 m/s 735 mmHg 59%
    10:00 +33°C° 0 mm 5 m/s 735 mmHg 54%
    11:00 +35°C° 0 mm 4 m/s 735 mmHg 49%
    12:00 +36°C° 0 mm 4 m/s 735 mmHg 44%
    13:00 +37°C° 0 mm 4 m/s 734 mmHg 42%
    14:00 +37°C° 0 mm 3 m/s 733 mmHg 40%
    15:00 +37°C° 0 mm 3 m/s 732 mmHg 38%
    16:00 +37°C° 0 mm 3 m/s 732 mmHg 40%
    17:00 +37°C° 0 mm 3 m/s 732 mmHg 41%
    18:00 +36°C° 0 mm 3 m/s 732 mmHg 42%
    19:00 +35°C° 0 mm 3 m/s 733 mmHg 45%
    20:00 +35°C° 0 mm 3 m/s 733 mmHg 48%
    21:00 +34°C° 0 mm 3 m/s 734 mmHg 51%
    22:00 +33°C° 0 mm 3 m/s 734 mmHg 53%
    23:00 +33°C° 0 mm 4 m/s 734 mmHg 55%

    24 Julho, Terça-feira

    Tempo Temperatura Precipitação Vento Pressão Humidade
    00:00 +32°C° 0 mm 4 m/s 734 mmHg 58%
    01:00 +32°C° 0 mm 4 m/s 733 mmHg 60%
    02:00 +30°C° 0 mm 4 m/s 733 mmHg 61%
    03:00 +30°C° 0 mm 5 m/s 733 mmHg 63%
    04:00 +29°C° 0 mm 5 m/s 733 mmHg 66%
    05:00 +29°C° 0 mm 5 m/s 733 mmHg 68%
    06:00 +29°C° 0 mm 5 m/s 733 mmHg 71%
    07:00 +30°C° 0 mm 5 m/s 733 mmHg 67%
    08:00 +32°C° 0 mm 5 m/s 734 mmHg 63%
    09:00 +33°C° 0 mm 5 m/s 735 mmHg 59%
    10:00 +35°C° 0 mm 5 m/s 734 mmHg 53%
    11:00 +36°C° 0 mm 5 m/s 734 mmHg 48%
    12:00 +39°C° 0 mm 5 m/s 733 mmHg 42%
    13:00 +39°C° 0 mm 5 m/s 732 mmHg 40%
    14:00 +40°C° 0 mm 4 m/s 732 mmHg 38%
    15:00 +40°C° 0 mm 4 m/s 731 mmHg 36%
    16:00 +40°C° 0 mm 4 m/s 731 mmHg 37%
    17:00 +38°C° 0 mm 3 m/s 731 mmHg 38%
    18:00 +38°C° 0 mm 3 m/s 731 mmHg 39%
    19:00 +37°C° 2 mm 4 m/s 732 mmHg 44%
    20:00 +35°C° 2 mm 4 m/s 732 mmHg 50%
    21:00 +34°C° 2 mm 5 m/s 732 mmHg 55%
    22:00 +33°C° 9,1 mm 5 m/s 732 mmHg 62%
    23:00 +32°C° 9,1 mm 4 m/s 733 mmHg 68%

    25 Julho, Quarta-feira

    Tempo Temperatura Precipitação Vento Pressão Humidade
    00:00 +29°C° 9,1 mm 4 m/s 733 mmHg 75%
    01:00 +29°C° 0,2 mm 4 m/s 733 mmHg 75%
    02:00 +29°C° 0,2 mm 4 m/s 732 mmHg 75%
    03:00 +29°C° 0,2 mm 4 m/s 732 mmHg 75%
    04:00 +29°C° 0,9 mm 4 m/s 733 mmHg 77%
    05:00 +28°C° 0,9 mm 4 m/s 733 mmHg 79%
    06:00 +28°C° 0,9 mm 4 m/s 734 mmHg 80%
    07:00 +28°C° 1,4 mm 5 m/s 734 mmHg 78%
    08:00 +28°C° 1,4 mm 6 m/s 735 mmHg 76%
    09:00 +29°C° 1,4 mm 6 m/s 736 mmHg 74%
    10:00 +29°C° 0,5 mm 6 m/s 735 mmHg 73%
    11:00 +30°C° 0,5 mm 6 m/s 735 mmHg 71%
    12:00 +30°C° 0,5 mm 6 m/s 735 mmHg 70%
    13:00 +32°C° 0 mm 6 m/s 734 mmHg 66%
    14:00 +33°C° 0 mm 6 m/s 733 mmHg 62%
    15:00 +33°C° 0 mm 6 m/s 733 mmHg 59%
    16:00 +33°C° 0 mm 5 m/s 733 mmHg 60%
    17:00 +33°C° 0 mm 4 m/s 733 mmHg 61%
    18:00 +31°C° 0 mm 3 m/s 733 mmHg 62%
    19:00 +31°C° 0 mm 2 m/s 734 mmHg 63%
    20:00 +31°C° 0 mm 2 m/s 734 mmHg 65%
    21:00 +30°C° 0 mm 2 m/s 734 mmHg 66%
    22:00 +30°C° 0 mm 2 m/s 734 mmHg 67%
    23:00 +30°C° 0 mm 2 m/s 734 mmHg 69%
    Mostrar mais